GAOFEN 5-02 (49122 NORAD) Tracking and Keplerian Element Data

This shows tracking and keplerian element data for the satellite.

Feedback or suggestion? Click here.




ElementValue
Catalog49122
NameGAOFEN 5-02
Epoch Orbit174
Epoch Day262.10873813
Epoch Year2021
RAAN333.3723
Inclination98.2837
Eccentricity8.33E-05
Argument of Perigee196.8319
Mean Anonmoly163.2872
Mean Motion14.57682602
Decay Rate3.8E-07
L11 49122U 21079A 21262.10873813 .00000038 00000-0 18476-4 0 9992
L22 49122 98.2837 333.3723 0000833 196.8319 163.2872 14.57682602 1744

Live tracking and technical data element details for GAOFEN 5-02 (NORAD 49122). GAOFEN 5-02 can be tracked NOW for your location showing map with azimuth and elevation plus other details from your city location.

Track the satellite on the map from your city or location and see movement details for azimuth, elevation, latitude, longitude, range, height, and movement on the map or in text.







IsCatalogInMostPopularTable: catalog: 49122, numindb: 8
Update: records affected: 1



GetName: 49122 GAOFEN 5-02

Hit Count: updated at: Fri, 24 Sep 2021 17:55:28 GMT